Time,TemperatureF,DewpointF,PressureIn,WindDirection,WindDirectionDegrees,WindSpeedMPH,WindSpeedGustMPH,Humidity,HourlyPrecipIn,Conditions,Clouds,dailyrainin,SoftwareType,DateUTC
2013-12-27 00:02:00,30.0,25.0,30.14,North,-999,-999.0,-999.0,80,-99.99,,,-99.99,,2013-12-27 06:02:00,
2013-12-27 00:22:00,30.0,25.0,30.14,North,-999,-999.0,-999.0,80,-99.99,,,-99.99,,2013-12-27 06:22:00,
2013-12-27 00:43:00,30.0,25.0,30.14,North,-999,-999.0,-999.0,80,-99.99,,,-99.99,,2013-12-27 06:43:00,
2013-12-27 01:12:00,28.0,25.0,30.13,North,-999,-999.0,-999.0,86,-99.99,,,-99.99,,2013-12-27 07:12:00,
2013-12-27 01:22:00,28.0,25.0,30.13,North,-999,-999.0,-999.0,86,-99.99,,,-99.99,,2013-12-27 07:22:00,
2013-12-27 01:42:00,27.0,21.0,30.11,North,-999,-999.0,-999.0,79,-99.99,,,-99.99,,2013-12-27 07:42:00,
2013-12-27 02:22:00,23.0,19.0,30.09,North,-999,-999.0,-999.0,85,-99.99,,,-99.99,,2013-12-27 08:22:00,
2013-12-27 02:42:00,21.0,18.0,30.08,North,-999,-999.0,-999.0,85,-99.99,,,-99.99,,2013-12-27 08:42:00,
2013-12-27 03:21:00,21.0,18.0,30.06,North,-999,-999.0,-999.0,85,-99.99,,,-99.99,,2013-12-27 09:21:00,
2013-12-27 03:43:00,21.0,18.0,30.06,North,-999,-999.0,-999.0,85,-99.99,,,-99.99,,2013-12-27 09:43:00,
2013-12-27 04:23:00,23.0,18.0,30.04,North,-999,-999.0,-999.0,79,-99.99,,,-99.99,,2013-12-27 10:23:00,
2013-12-27 04:42:00,27.0,21.0,30.03,North,-999,-999.0,-999.0,79,-99.99,,,-99.99,,2013-12-27 10:42:00,
2013-12-27 05:22:00,30.0,25.0,30.01,North,-999,-999.0,-999.0,80,-99.99,,,-99.99,,2013-12-27 11:22:00,
2013-12-27 05:43:00,28.0,23.0,29.99,North,-999,-999.0,-999.0,79,-99.99,,,-99.99,,2013-12-27 11:43:00,
2013-12-27 06:22:00,34.0,27.0,29.96,North,-999,-999.0,-999.0,74,-99.99,,,-99.99,,2013-12-27 12:22:00,
2013-12-27 07:22:00,37.0,28.0,29.93,North,-999,-999.0,-999.0,69,-99.99,,,-99.99,,2013-12-27 13:22:00,
2013-12-27 07:42:00,37.0,27.0,29.91,North,-999,-999.0,-999.0,64,-99.99,,,-99.99,,2013-12-27 13:42:00,
2013-12-27 07:52:00,37.0,28.0,29.90,North,-999,-999.0,-999.0,69,-99.99,,,-99.99,,2013-12-27 13:52:00,
2013-12-27 08:02:00,37.0,28.0,29.90,North,-999,-999.0,-999.0,69,-99.99,,,-99.99,,2013-12-27 14:02:00,
2013-12-27 08:22:00,37.0,28.0,29.91,North,-999,-999.0,-999.0,69,-99.99,,,-99.99,,2013-12-27 14:22:00,
2013-12-27 08:42:00,36.0,27.0,29.91,North,-999,-999.0,-999.0,69,-99.99,,,-99.99,,2013-12-27 14:42:00,
2013-12-27 09:22:00,34.0,27.0,29.92,North,-999,-999.0,-999.0,74,-99.99,,,-99.99,,2013-12-27 15:22:00,
2013-12-27 09:43:00,34.0,27.0,29.91,North,-999,-999.0,-999.0,74,-99.99,,,-99.99,,2013-12-27 15:43:00,
2013-12-27 09:54:00,36.0,27.0,29.91,North,-999,-999.0,-999.0,69,-99.99,,,-99.99,,2013-12-27 15:54:00,
2013-12-27 10:03:00,36.0,27.0,29.91,North,-999,-999.0,-999.0,69,-99.99,,,-99.99,,2013-12-27 16:03:00,
2013-12-27 10:23:00,37.0,27.0,29.91,North,-999,-999.0,-999.0,64,-99.99,,,-99.99,,2013-12-27 16:23:00,
2013-12-27 10:43:00,36.0,27.0,29.93,North,-999,-999.0,-999.0,69,-99.99,,,-99.99,,2013-12-27 16:43:00,
2013-12-27 11:22:00,37.0,28.0,29.95,North,-999,-999.0,-999.0,69,-99.99,,,-99.99,,2013-12-27 17:22:00,
2013-12-27 11:43:00,37.0,28.0,29.95,North,-999,-999.0,-999.0,69,-99.99,,,-99.99,,2013-12-27 17:43:00,
2013-12-27 11:52:00,39.0,30.0,29.95,North,-999,-999.0,-999.0,69,-99.99,,,-99.99,,2013-12-27 17:52:00,
2013-12-27 12:02:00,39.0,30.0,29.95,North,-999,-999.0,-999.0,69,-99.99,,,-99.99,,2013-12-27 18:02:00,
2013-12-27 12:12:00,39.0,30.0,29.95,North,-999,-999.0,-999.0,69,-99.99,,,-99.99,,2013-12-27 18:12:00,
2013-12-27 12:22:00,39.0,30.0,29.95,North,-999,-999.0,-999.0,69,-99.99,,,-99.99,,2013-12-27 18:22:00,
2013-12-27 12:42:00,39.0,30.0,29.96,North,-999,-999.0,-999.0,69,-99.99,,,-99.99,,2013-12-27 18:42:00,
2013-12-27 13:22:00,39.0,30.0,29.96,North,-999,-999.0,-999.0,69,-99.99,,,-99.99,,2013-12-27 19:22:00,
2013-12-27 13:42:00,37.0,30.0,29.95,North,-999,-999.0,-999.0,74,-99.99,,,-99.99,,2013-12-27 19:42:00,
2013-12-27 14:21:00,39.0,32.0,29.96,North,-999,-999.0,-999.0,75,-99.99,,,-99.99,,2013-12-27 20:21:00,
2013-12-27 14:42:00,39.0,32.0,29.96,North,-999,-999.0,-999.0,75,-99.99,,,-99.99,,2013-12-27 20:42:00,
2013-12-27 15:22:00,39.0,30.0,29.97,North,-999,-999.0,-999.0,69,-99.99,,,-99.99,,2013-12-27 21:22:00,
2013-12-27 15:43:00,39.0,32.0,29.97,North,-999,-999.0,-999.0,75,-99.99,,,-99.99,,2013-12-27 21:43:00,
2013-12-27 15:53:00,39.0,32.0,29.98,North,-999,-999.0,-999.0,75,-99.99,,,-99.99,,2013-12-27 21:53:00,
2013-12-27 16:03:00,39.0,32.0,29.98,North,-999,-999.0,-999.0,75,-99.99,,,-99.99,,2013-12-27 22:03:00,
2013-12-27 16:23:00,37.0,30.0,29.98,North,-999,-999.0,-999.0,74,-99.99,,,-99.99,,2013-12-27 22:23:00,
2013-12-27 16:43:00,37.0,32.0,29.99,North,-999,-999.0,-999.0,80,-99.99,,,-99.99,,2013-12-27 22:43:00,
2013-12-27 17:22:00,36.0,30.0,30.00,North,-999,-999.0,-999.0,80,-99.99,,,-99.99,,2013-12-27 23:22:00,
2013-12-27 17:42:00,37.0,32.0,30.00,North,-999,-999.0,-999.0,80,-99.99,,,-99.99,,2013-12-27 23:42:00,
2013-12-27 17:52:00,36.0,30.0,30.00,North,-999,-999.0,-999.0,80,-99.99,,,-99.99,,2013-12-27 23:52:00,
2013-12-27 18:02:00,36.0,30.0,30.00,North,-999,-999.0,-999.0,80,-99.99,,,-99.99,,2013-12-28 00:02:00,
2013-12-27 18:22:00,36.0,30.0,30.01,North,-999,-999.0,-999.0,80,-99.99,,,-99.99,,2013-12-28 00:22:00,
2013-12-27 18:42:00,36.0,30.0,30.01,North,-999,-999.0,-999.0,80,-99.99,,,-99.99,,2013-12-28 00:42:00,
2013-12-27 18:52:00,36.0,30.0,30.02,North,-999,-999.0,-999.0,80,-99.99,,,-99.99,,2013-12-28 00:52:00,
2013-12-27 19:02:00,36.0,30.0,30.02,North,-999,-999.0,-999.0,80,-99.99,,,-99.99,,2013-12-28 01:02:00,
2013-12-27 19:21:00,34.0,28.0,30.02,North,-999,-999.0,-999.0,80,-99.99,,,-99.99,,2013-12-28 01:21:00,
2013-12-27 19:42:00,34.0,28.0,30.02,North,-999,-999.0,-999.0,80,-99.99,,,-99.99,,2013-12-28 01:42:00,
2013-12-27 20:12:00,32.0,28.0,30.01,North,-999,-999.0,-999.0,86,-99.99,,,-99.99,,2013-12-28 02:12:00,
2013-12-27 20:21:00,32.0,28.0,30.01,North,-999,-999.0,-999.0,86,-99.99,,,-99.99,,2013-12-28 02:21:00,
2013-12-27 20:42:00,30.0,27.0,30.01,North,-999,-999.0,-999.0,86,-99.99,,,-99.99,,2013-12-28 02:42:00,
2013-12-27 21:22:00,30.0,27.0,30.00,North,-999,-999.0,-999.0,86,-99.99,,,-99.99,,2013-12-28 03:22:00,
2013-12-27 21:43:00,30.0,27.0,30.00,North,-999,-999.0,-999.0,86,-99.99,,,-99.99,,2013-12-28 03:43:00,
2013-12-27 22:22:00,28.0,27.0,29.98,North,-999,-999.0,-999.0,92,-99.99,,,-99.99,,2013-12-28 04:22:00,
2013-12-27 22:42:00,28.0,25.0,29.97,North,-999,-999.0,-999.0,86,-99.99,,,-99.99,,2013-12-28 04:42:00,
2013-12-27 23:12:00,28.0,25.0,29.96,North,-999,-999.0,-999.0,86,-99.99,,,-99.99,,2013-12-28 05:12:00,
2013-12-27 23:22:00,28.0,25.0,29.96,North,-999,-999.0,-999.0,86,-99.99,,,-99.99,,2013-12-28 05:22:00,
2013-12-27 23:43:00,28.0,25.0,29.94,North,-999,-999.0,-999.0,86,-99.99,,,-99.99,,2013-12-28 05:43:00,
2013-12-27 23:53:00,28.0,25.0,29.94,North,-999,-999.0,-999.0,86,-99.99,,,-99.99,,2013-12-28 05:53:00,